TimeCST,TemperatureF,Dew PointF,Humidity,Sea Level PressureIn,VisibilityMPH,Wind Direction,Wind SpeedMPH,Gust SpeedMPH,PrecipitationIn,Events,Conditions,WindDirDegrees,DateUTC
12:15 AM,21.2,19.4,93,29.76,5.0,NW,8.1,-,N/A,,Overcast,310,2013-01-29 06:15:00
12:35 AM,21.2,17.6,86,29.76,5.0,NW,5.8,-,N/A,,Overcast,310,2013-01-29 06:35:00
12:55 AM,19.4,17.6,93,29.76,5.0,NW,5.8,-,N/A,,Scattered Clouds,310,2013-01-29 06:55:00
1:15 AM,19.4,17.6,93,29.75,5.0,NNW,4.6,-,N/A,,Clear,340,2013-01-29 07:15:00
1:35 AM,17.6,15.8,93,29.73,5.0,NW,5.8,-,N/A,,Partly Cloudy,310,2013-01-29 07:35:00
1:55 AM,17.6,15.8,93,29.73,5.0,WNW,4.6,-,N/A,,Scattered Clouds,300,2013-01-29 07:55:00
2:15 AM,17.6,15.8,93,29.72,6.0,NW,5.8,-,N/A,,Mostly Cloudy,310,2013-01-29 08:15:00
2:35 AM,19.4,17.6,93,29.72,7.0,NNW,6.9,-,N/A,,Overcast,330,2013-01-29 08:35:00
2:55 AM,19.4,17.6,93,29.72,8.0,NW,9.2,-,N/A,,Overcast,320,2013-01-29 08:55:00
3:15 AM,19.4,17.6,93,29.72,10.0,NW,11.5,-,N/A,,Overcast,320,2013-01-29 09:15:00
3:35 AM,19.4,17.6,93,29.72,9.0,NW,9.2,-,N/A,,Overcast,320,2013-01-29 09:35:00
3:55 AM,21.2,17.6,86,29.72,9.0,NNW,8.1,-,N/A,,Overcast,340,2013-01-29 09:55:00
4:15 AM,21.2,17.6,86,29.72,8.0,NNW,10.4,-,N/A,,Overcast,340,2013-01-29 10:15:00
4:35 AM,21.2,19.4,93,29.72,8.0,NNW,11.5,16.1,N/A,,Overcast,340,2013-01-29 10:35:00
4:55 AM,23.0,19.4,86,29.73,7.0,NNW,10.4,-,N/A,,Overcast,340,2013-01-29 10:55:00
5:15 AM,21.2,19.4,93,29.72,7.0,NNW,10.4,-,N/A,,Overcast,340,2013-01-29 11:15:00
5:35 AM,21.2,19.4,93,29.72,7.0,NNW,10.4,-,N/A,,Overcast,340,2013-01-29 11:35:00
5:55 AM,21.2,19.4,93,29.73,6.0,NNW,10.4,-,N/A,,Overcast,340,2013-01-29 11:55:00
6:15 AM,21.2,19.4,93,29.73,5.0,NNW,9.2,-,N/A,,Overcast,340,2013-01-29 12:15:00
6:35 AM,21.2,19.4,93,29.73,5.0,NNW,9.2,-,N/A,,Overcast,340,2013-01-29 12:35:00
6:55 AM,21.2,19.4,93,29.74,5.0,North,10.4,-,N/A,,Overcast,350,2013-01-29 12:55:00
7:15 AM,19.4,19.4,100,29.75,4.0,NNW,10.4,-,N/A,,Overcast,340,2013-01-29 13:15:00
7:35 AM,19.4,19.4,100,29.75,4.0,NNW,10.4,-,N/A,,Overcast,340,2013-01-29 13:35:00
7:55 AM,19.4,19.4,100,29.75,4.0,NNW,9.2,-,N/A,,Overcast,340,2013-01-29 13:55:00
8:15 AM,19.4,19.4,100,29.76,3.0,NNW,9.2,-,N/A,,Overcast,340,2013-01-29 14:15:00
8:35 AM,19.4,19.4,100,29.77,3.0,NNW,8.1,-,N/A,,Overcast,340,2013-01-29 14:35:00
8:55 AM,19.4,19.4,100,29.77,3.0,NNW,10.4,-,N/A,,Overcast,340,2013-01-29 14:55:00
9:15 AM,19.4,17.6,93,29.78,3.0,NNW,10.4,-,N/A,Snow,Light Snow,340,2013-01-29 15:15:00
9:35 AM,19.4,17.6,93,29.78,2.5,NNW,11.5,-,N/A,Snow,Light Snow,340,2013-01-29 15:35:00
9:55 AM,19.4,17.6,93,29.79,2.5,NNW,13.8,-,N/A,Rain,Freezing Rain,340,2013-01-29 15:55:00
10:15 AM,19.4,17.6,93,29.80,2.0,NNW,11.5,-,N/A,Snow,Light Snow,330,2013-01-29 16:15:00
10:35 AM,19.4,17.6,93,29.81,2.0,NNW,15.0,-,N/A,Snow,Light Snow,330,2013-01-29 16:35:00
10:55 AM,19.4,15.8,86,29.81,2.0,NNW,13.8,17.3,0.01,Snow,Light Snow,340,2013-01-29 16:55:00
11:15 AM,19.4,15.8,86,29.82,2.5,NNW,13.8,-,N/A,Snow,Light Snow,330,2013-01-29 17:15:00
11:35 AM,19.4,15.8,86,29.83,2.5,NNW,15.0,-,N/A,Snow,Light Snow,340,2013-01-29 17:35:00
11:55 AM,19.4,15.8,86,29.82,3.0,NNW,13.8,-,0.01,Snow,Light Snow,340,2013-01-29 17:55:00
12:15 PM,19.4,15.8,86,29.83,3.0,NNW,16.1,19.6,N/A,Snow,Light Snow,340,2013-01-29 18:15:00
12:35 PM,17.6,15.8,93,29.83,5.0,NNW,15.0,18.4,N/A,Snow,Light Snow,340,2013-01-29 18:35:00
12:55 PM,17.6,14.0,86,29.83,5.0,North,15.0,-,N/A,Rain,Freezing Rain,350,2013-01-29 18:55:00
1:15 PM,17.6,14.0,86,29.83,4.0,NNW,17.3,24.2,N/A,Rain,Freezing Rain,340,2013-01-29 19:15:00
1:35 PM,17.6,14.0,86,29.84,5.0,North,13.8,-,N/A,,Overcast,350,2013-01-29 19:35:00
1:55 PM,17.6,14.0,86,29.84,7.0,NNW,12.7,18.4,N/A,,Mostly Cloudy,340,2013-01-29 19:55:00
2:15 PM,17.6,14.0,86,29.84,7.0,North,16.1,19.6,N/A,,Mostly Cloudy,350,2013-01-29 20:15:00
2:35 PM,17.6,14.0,86,29.85,6.0,North,13.8,18.4,N/A,,Haze,350,2013-01-29 20:35:00
2:55 PM,17.6,14.0,86,29.86,4.0,North,13.8,18.4,N/A,Snow,Light Snow,350,2013-01-29 20:55:00
3:15 PM,17.6,14.0,86,29.86,3.0,North,13.8,-,N/A,Snow,Light Snow,350,2013-01-29 21:15:00
3:35 PM,17.6,14.0,86,29.86,2.5,NNW,16.1,23.0,N/A,Rain,Freezing Rain,340,2013-01-29 21:35:00
3:55 PM,15.8,12.2,86,29.87,4.0,NNW,17.3,-,N/A,Rain,Freezing Rain,340,2013-01-29 21:55:00
4:15 PM,15.8,10.4,79,29.89,8.0,North,13.8,23.0,N/A,Rain,Freezing Rain,350,2013-01-29 22:15:00
4:35 PM,15.8,10.4,79,29.89,7.0,North,17.3,21.9,N/A,Rain,Freezing Rain,350,2013-01-29 22:35:00
4:55 PM,15.8,10.4,79,29.90,5.0,North,16.1,23.0,N/A,Rain,Freezing Rain,350,2013-01-29 22:55:00
5:15 PM,15.8,10.4,79,29.91,6.0,North,15.0,19.6,N/A,Rain,Freezing Rain,350,2013-01-29 23:15:00
5:35 PM,14.0,10.4,86,29.92,7.0,NNW,16.1,-,N/A,Snow,Light Snow,340,2013-01-29 23:35:00
5:55 PM,14.0,8.6,79,29.93,7.0,NNW,15.0,-,N/A,Rain,Freezing Rain,340,2013-01-29 23:55:00
6:15 PM,14.0,8.6,79,29.93,7.0,NNW,15.0,21.9,N/A,Rain,Freezing Rain,340,2013-01-30 00:15:00
6:35 PM,14.0,8.6,79,29.94,5.0,NNW,17.3,24.2,N/A,Rain,Freezing Rain,340,2013-01-30 00:35:00
6:55 PM,14.0,8.6,79,29.94,7.0,NNW,17.3,21.9,N/A,Rain,Freezing Rain,340,2013-01-30 00:55:00
7:15 PM,14.0,8.6,79,29.94,9.0,NNW,16.1,20.7,N/A,Rain,Freezing Rain,340,2013-01-30 01:15:00
7:35 PM,14.0,8.6,79,29.95,8.0,NNW,16.1,21.9,N/A,Rain,Freezing Rain,340,2013-01-30 01:35:00
7:55 PM,14.0,6.8,73,29.96,7.0,NNW,16.1,21.9,N/A,Rain,Freezing Rain,340,2013-01-30 01:55:00
8:15 PM,14.0,6.8,73,29.96,8.0,NNW,16.1,-,N/A,Rain,Freezing Rain,330,2013-01-30 02:15:00
8:35 PM,12.2,6.8,79,29.97,8.0,NNW,17.3,26.5,N/A,Rain,Freezing Rain,340,2013-01-30 02:35:00
8:55 PM,12.2,6.8,79,29.99,9.0,NNW,17.3,24.2,N/A,Rain,Freezing Rain,340,2013-01-30 02:55:00
9:15 PM,10.4,6.8,85,30.00,4.0,North,15.0,21.9,N/A,Snow,Light Snow,350,2013-01-30 03:15:00
9:35 PM,10.4,6.8,85,30.00,4.0,NNW,17.3,25.3,0.01,Rain,Freezing Rain,340,2013-01-30 03:35:00
9:55 PM,10.4,5.0,79,30.01,6.0,North,16.1,20.7,0.01,Rain,Freezing Rain,350,2013-01-30 03:55:00
10:15 PM,10.4,5.0,79,30.01,7.0,North,16.1,19.6,N/A,Rain,Freezing Rain,350,2013-01-30 04:15:00
10:35 PM,8.6,5.0,85,30.01,6.0,North,16.1,19.6,N/A,Rain,Freezing Rain,350,2013-01-30 04:35:00
10:55 PM,8.6,5.0,85,30.01,6.0,NNW,18.4,25.3,N/A,Rain,Freezing Rain,340,2013-01-30 04:55:00
11:15 PM,8.6,3.2,79,30.01,5.0,NNW,19.6,25.3,N/A,Rain,Freezing Rain,340,2013-01-30 05:15:00
11:35 PM,8.6,3.2,79,30.01,6.0,NNW,17.3,24.2,N/A,Rain,Freezing Rain,340,2013-01-30 05:35:00
11:55 PM,8.6,3.2,79,30.01,6.0,NNW,15.0,-,N/A,Rain,Freezing Rain,340,2013-01-30 05:55:00